Previsão horária em Al Mashhad

Hoje, 18 Janeiro, Segunda-feira

Tempo Temperatura Precipitação Vento Pressão Humidade
00:00 +16°C° 0 mm 0 m/s 646 mmHg 73%
01:00 +16°C° 0 mm 0 m/s 646 mmHg 75%
02:00 +15°C° 0 mm 0 m/s 646 mmHg 76%
03:00 +15°C° 0 mm 0 m/s 645 mmHg 74%
04:00 +14°C° 0 mm 0 m/s 646 mmHg 74%
05:00 +14°C° 0 mm 0 m/s 646 mmHg 74%
06:00 +13°C° 0 mm 0 m/s 646 mmHg 74%
07:00 +16°C° 0 mm 0 m/s 647 mmHg 61%
08:00 +20°C° 0 mm 1 m/s 648 mmHg 49%
09:00 +22°C° 0 mm 1 m/s 649 mmHg 35%
10:00 +23°C° 0 mm 1 m/s 649 mmHg 31%
11:00 +25°C° 0 mm 1 m/s 649 mmHg 28%
12:00 +26°C° 0 mm 2 m/s 649 mmHg 24%
13:00 +27°C° 0 mm 2 m/s 649 mmHg 27%
14:00 +27°C° 0 mm 3 m/s 648 mmHg 30%
15:00 +27°C° 0 mm 4 m/s 648 mmHg 35%
16:00 +26°C° 0 mm 3 m/s 648 mmHg 43%
17:00 +24°C° 0 mm 3 m/s 647 mmHg 52%
18:00 +23°C° 0 mm 2 m/s 647 mmHg 60%
19:00 +21°C° 0 mm 2 m/s 647 mmHg 61%
20:00 +20°C° 0 mm 2 m/s 648 mmHg 61%
21:00 +20°C° 0 mm 2 m/s 648 mmHg 62%
22:00 +19°C° 0 mm 2 m/s 648 mmHg 51%
23:00 +19°C° 0 mm 2 m/s 647 mmHg 41%

Amanhã, 19 Janeiro, Terça-feira

Tempo Temperatura Precipitação Vento Pressão Humidade
00:00 +18°C° 0 mm 2 m/s 647 mmHg 30%
01:00 +17°C° 0 mm 2 m/s 647 mmHg 31%
02:00 +17°C° 0 mm 2 m/s 646 mmHg 32%
03:00 +16°C° 0 mm 2 m/s 646 mmHg 33%
04:00 +15°C° 0 mm 1 m/s 646 mmHg 34%
05:00 +15°C° 0 mm 1 m/s 646 mmHg 35%
06:00 +14°C° 0 mm 1 m/s 646 mmHg 37%
07:00 +16°C° 0 mm 1 m/s 647 mmHg 31%
08:00 +19°C° 0 mm 1 m/s 648 mmHg 25%
09:00 +20°C° 0 mm 2 m/s 649 mmHg 19%
10:00 +23°C° 0 mm 2 m/s 649 mmHg 17%
11:00 +25°C° 0 mm 2 m/s 649 mmHg 16%
12:00 +27°C° 0 mm 2 m/s 649 mmHg 14%
13:00 +27°C° 0 mm 3 m/s 649 mmHg 18%
14:00 +27°C° 0 mm 3 m/s 648 mmHg 22%
15:00 +27°C° 0 mm 4 m/s 648 mmHg 26%
16:00 +25°C° 0 mm 4 m/s 648 mmHg 35%
17:00 +24°C° 0 mm 3 m/s 647 mmHg 44%
18:00 +21°C° 0 mm 3 m/s 647 mmHg 53%
19:00 +20°C° 0 mm 2 m/s 647 mmHg 60%
20:00 +20°C° 0 mm 1 m/s 647 mmHg 67%
21:00 +19°C° 0 mm 1 m/s 647 mmHg 74%
22:00 +19°C° 0 mm 1 m/s 647 mmHg 65%
23:00 +18°C° 0 mm 1 m/s 647 mmHg 57%

Depois de amanhã, 20 Janeiro, Quarta-feira

Tempo Temperatura Precipitação Vento Pressão Humidade
00:00 +18°C° 0 mm 1 m/s 647 mmHg 49%
01:00 +15°C° 0 mm 0 m/s 647 mmHg 47%
02:00 +14°C° 0 mm 0 m/s 646 mmHg 44%
03:00 +13°C° 0 mm 0 m/s 646 mmHg 42%
04:00 +13°C° 0 mm 0 m/s 646 mmHg 39%
05:00 +13°C° 0 mm 0 m/s 646 mmHg 36%
06:00 +12°C° 0 mm 0 m/s 646 mmHg 33%
07:00 +15°C° 0 mm 0 m/s 647 mmHg 29%
08:00 +17°C° 0 mm 0 m/s 648 mmHg 25%
09:00 +19°C° 0 mm 0 m/s 649 mmHg 21%
10:00 +23°C° 0 mm 1 m/s 649 mmHg 22%
11:00 +24°C° 0 mm 2 m/s 649 mmHg 23%
12:00 +25°C° 0 mm 3 m/s 649 mmHg 23%
13:00 +25°C° 0 mm 4 m/s 649 mmHg 30%
14:00 +25°C° 0 mm 5 m/s 648 mmHg 37%
15:00 +24°C° 0 mm 6 m/s 648 mmHg 43%
16:00 +23°C° 0 mm 5 m/s 648 mmHg 52%
17:00 +22°C° 0 mm 4 m/s 648 mmHg 62%
18:00 +20°C° 0 mm 3 m/s 648 mmHg 71%
19:00 +20°C° 0 mm 2 m/s 648 mmHg 76%
20:00 +20°C° 0 mm 1 m/s 648 mmHg 81%
21:00 +17°C° 0 mm 0 m/s 648 mmHg 85%
22:00 +17°C° 0 mm 0 m/s 648 mmHg 86%
23:00 +16°C° 0 mm 0 m/s 648 mmHg 87%

21 Janeiro, Quinta-feira

Tempo Temperatura Precipitação Vento Pressão Humidade
00:00 +16°C° 0 mm 0 m/s 647 mmHg 88%
01:00 +15°C° 0 mm 0 m/s 647 mmHg 89%
02:00 +15°C° 0 mm 0 m/s 646 mmHg 89%
03:00 +15°C° 0 mm 0 m/s 646 mmHg 90%
04:00 +14°C° 0 mm 0 m/s 646 mmHg 90%
05:00 +14°C° 0 mm 0 m/s 646 mmHg 90%
06:00 +13°C° 0 mm 0 m/s 646 mmHg 90%
07:00 +15°C° 0 mm 0 m/s 647 mmHg 80%
08:00 +17°C° 0 mm 0 m/s 648 mmHg 69%
09:00 +19°C° 0 mm 0 m/s 649 mmHg 59%
10:00 +23°C° 0 mm 1 m/s 649 mmHg 50%
11:00 +25°C° 0 mm 1 m/s 649 mmHg 41%
12:00 +27°C° 0 mm 1 m/s 650 mmHg 31%
13:00 +27°C° 0 mm 2 m/s 649 mmHg 33%
14:00 +27°C° 0 mm 3 m/s 648 mmHg 35%
15:00 +27°C° 0 mm 4 m/s 648 mmHg 37%
16:00 +26°C° 0 mm 4 m/s 648 mmHg 44%
17:00 +24°C° 0 mm 3 m/s 648 mmHg 50%
18:00 +22°C° 0 mm 3 m/s 648 mmHg 57%
19:00 +21°C° 0 mm 2 m/s 648 mmHg 56%
20:00 +20°C° 0 mm 2 m/s 648 mmHg 55%
21:00 +20°C° 0 mm 1 m/s 649 mmHg 55%
22:00 +19°C° 0 mm 2 m/s 649 mmHg 46%
23:00 +18°C° 0 mm 3 m/s 649 mmHg 38%

22 Janeiro, Sexta-feira

Tempo Temperatura Precipitação Vento Pressão Humidade
00:00 +18°C° 0 mm 4 m/s 649 mmHg 30%
01:00 +17°C° 0 mm 4 m/s 648 mmHg 31%
02:00 +15°C° 0 mm 5 m/s 648 mmHg 33%
03:00 +14°C° 0 mm 6 m/s 647 mmHg 34%
04:00 +13°C° 0 mm 6 m/s 647 mmHg 37%
05:00 +11°C° 0 mm 6 m/s 647 mmHg 39%
06:00 +11°C° 0 mm 6 m/s 647 mmHg 42%
07:00 +13°C° 0 mm 6 m/s 648 mmHg 39%
08:00 +14°C° 0 mm 6 m/s 649 mmHg 36%
09:00 +15°C° 0 mm 6 m/s 649 mmHg 33%
10:00 +17°C° 0 mm 5 m/s 649 mmHg 30%
11:00 +20°C° 0 mm 5 m/s 649 mmHg 26%
12:00 +22°C° 0 mm 4 m/s 649 mmHg 22%
13:00 +23°C° 0 mm 4 m/s 649 mmHg 21%
14:00 +25°C° 0 mm 3 m/s 648 mmHg 20%
15:00 +26°C° 0 mm 3 m/s 648 mmHg 18%
16:00 +24°C° 0 mm 3 m/s 648 mmHg 24%
17:00 +22°C° 0 mm 3 m/s 648 mmHg 30%
18:00 +20°C° 0 mm 3 m/s 647 mmHg 36%
19:00 +19°C° 0 mm 3 m/s 648 mmHg 36%
20:00 +18°C° 0 mm 3 m/s 648 mmHg 35%
21:00 +17°C° 0 mm 3 m/s 648 mmHg 34%
22:00 +16°C° 0 mm 3 m/s 648 mmHg 34%
23:00 +15°C° 0 mm 4 m/s 647 mmHg 34%

23 Janeiro, Sábado

Tempo Temperatura Precipitação Vento Pressão Humidade
00:00 +14°C° 0 mm 4 m/s 647 mmHg 35%
01:00 +13°C° 0 mm 4 m/s 647 mmHg 36%
02:00 +13°C° 0 mm 4 m/s 646 mmHg 37%
03:00 +12°C° 0 mm 4 m/s 646 mmHg 38%
04:00 +12°C° 0 mm 4 m/s 646 mmHg 39%
05:00 +11°C° 0 mm 4 m/s 646 mmHg 40%
06:00 +11°C° 0 mm 4 m/s 646 mmHg 42%
07:00 +13°C° 0 mm 4 m/s 647 mmHg 38%
08:00 +14°C° 0 mm 4 m/s 648 mmHg 35%
09:00 +17°C° 0 mm 4 m/s 649 mmHg 32%
10:00 +19°C° 0 mm 3 m/s 649 mmHg 28%
11:00 +21°C° 0 mm 3 m/s 649 mmHg 24%
12:00 +24°C° 0 mm 2 m/s 649 mmHg 20%
13:00 +25°C° 0 mm 2 m/s 649 mmHg 20%
14:00 +26°C° 0 mm 2 m/s 648 mmHg 20%
15:00 +26°C° 0 mm 3 m/s 648 mmHg 20%
16:00 +25°C° 0 mm 2 m/s 648 mmHg 27%
17:00 +23°C° 0 mm 2 m/s 647 mmHg 34%
18:00 +22°C° 0 mm 1 m/s 647 mmHg 40%
19:00 +20°C° 0 mm 2 m/s 647 mmHg 39%
20:00 +19°C° 0 mm 2 m/s 648 mmHg 38%
21:00 +18°C° 0 mm 3 m/s 648 mmHg 37%
22:00 +17°C° 0 mm 3 m/s 648 mmHg 35%
23:00 +16°C° 0 mm 3 m/s 647 mmHg 34%
Mostrar mais

Necessitamos do seu Consentimento

A Meteoprog e os seus Fornecedores de Serviços podem armazenar e aceder a dados pessoais como cookies, identificadores do dispositivo ou outras tecnologias semelhantes existentes no seu dispositivo e processar estes dados para personalizar conteúdos e anúncios, assim como funcionalidades nas redes sociais e análise de tráfego.

  • Armazenar e/ou aceder a informações no seu dispositivo

    Os cookies, identificadores do dispositivo ou outras informações podem ser armazenados ou acedidos no seu dispositivo, para os fins acima indicados.

  • Anúncios e conteúdos personalizados, medição de anúncios e conteúdos, dados sobre o público-alvo e desenvolvimento de produtos

    Os anúncios e os conteúdos podem ser personalizados com base num perfil. Podem ser adicionados dados adicionais para uma maior personalização dos anúncios e dos conteúdos. A eficácia dos anúncios e dos conteúdos pode ser medida. Podem ser obtidas informações sobre o público que visualizou os anúncios e os conteúdos. Estes dados podem ser usados para desenvolver ou melhorar sistemas, softwares ou a experiência do utilizador.

Ao clicar em "Eu concordo”, permitirá o uso de cookies, identificadores do dispositivo e web beacons mencionados ou outras tecnologias semelhantes. As configurações do navegador do seu dispositivo podem ser alteradas.

Para certos fins, podem ser invocados interesses legítimos ao invés de consentimento. Pode ler mais informação sobre este assunto na nossa Política de Privacidade e Cookies.